User: anonymous
Location: Innerarity Island Observatory
(30.3139°N, 87.4867°W)
Time: 01:05:07
(UTC-05:00)
Language:

JAS-2 - Orbit

View from above orbital plane
View from above orbital plane
View from above satellite
View from above satellite

Ground track
Ground track

The orbit data is extracted from the following two-line orbital elements,

1 24278U 96046B   14261.63309706 -.00000008  00000-0  25422-4 0  4663
2 24278 098.5148 262.5962 0351195 055.3197 076.6090 13.53029457893306
Epoch (UTC): 18 September 2014 15:11:39
Eccentricity: 0.0351195
inclination: 98.5148°
perigee height: 800 km
apogee height: 1322 km
right ascension of ascending node: 262.5962°
argument of perigee: 55.3197°
revolutions per day: 13.53029457
mean anomaly at epoch: 76.6090°
orbit number at epoch: 89330

The dashed part of the orbit path shows where the satellite is in the earth's shadow,  

DLR